Location: Baumgartsau
(48.4586°N, 14.0864°E)
Time: 08:58:46
(UTC+00:00)

SL-16 R/B - Pass Details

Date: 09 April 2020
Orbit: 842 x 846 km, 71.0° (Epoch: 01 June)

Event Time Altitude Azimuth Distance (km) Brightness Sun altitude
Rises 23:13:41 0° 325° (NW) 3,415 6.0 -33.5°
Reaches altitude 10° 23:16:21 10° 316° (NW) 2,475 5.1 -33.5°
Enters shadow 23:18:50 23° 297° (WNW) 1,742 4.0 -33.4°
